FW5773 Weather Reports


Display with metric or nautical units.
time (UTC)temp
F
wind
direction
speed
MPH
gust
MPH
rain 1hr
in
rain 24hr
in
rain mn
in
humidity
%
barometer
mb
20200328184532 58 304 4.0 15.0 0.00 0.00 0.00 48 1013.2
20200328184028 58 279 6.0 15.0 0.00 0.00 0.00 49 1013.0
20200328183516 58 298 4.0 11.0 0.00 0.00 0.00 49 1013.0
20200328183013 58 286 3.0 11.0 0.00 0.00 0.00 48 1012.9
20200328182519 58 265 3.0 10.0 0.00 0.00 0.00 48 1012.9
20200328182016 58 355 3.0 10.0 0.00 0.00 0.00 49 1012.9
20200328181523 58 326 3.0 9.0 0.00 0.00 0.00 48 1012.8
20200328181019 58 267 3.0 9.0 0.00 0.00 0.00 48 1012.6
20200328180022 58 290 2.0 13.0 0.00 0.00 0.00 47 1012.6
20200328175538 58 345 2.0 13.0 0.00 0.00 0.00 47 1012.6
20200328175026 58 63 3.0 8.0 0.00 0.00 0.00 47 1012.5
20200328174537 59 319 5.0 8.0 0.00 0.00 0.00 48 1012.5
20200328174023 59 312 3.0 9.0 0.00 0.00 0.00 47 1012.5
20200328173535 59 302 3.0 5.0 0.00 0.00 0.00 47 1012.4
20200328173023 59 259 1.0 4.0 0.00 0.00 0.00 46 1012.4
20200328172540 59 219 1.0 8.0 0.00 0.00 0.00 46 1012.3
20200328172027 59 68 5.0 9.0 0.00 0.00 0.00 45 1012.3
20200328171514 60 356 4.0 9.0 0.00 0.00 0.00 45 1012.3
20200328171031 60 56 2.0 9.0 0.00 0.00 0.00 44 1012.2
20200328170527 60 335 5.0 9.0 0.00 0.00 0.00 44 1012.3
20200328170032 60 332 2.0 10.0 0.00 0.00 0.00 43 1012.2
20200328165529 60 73 2.0 7.0 0.00 0.00 0.00 44 1012.2
20200328165032 60 278 2.0 9.0 0.00 0.00 0.00 43 1012.2
20200328164526 61 227 4.0 9.0 0.00 0.00 0.00 43 1012.2
20200328164013 61 60 3.0 9.0 0.00 0.00 0.00 43 1012.2
20200328163529 61 107 2.0 10.0 0.00 0.00 0.00 42 1012.1
20200328163016 62 193 4.0 10.0 0.00 0.00 0.00 41 1012.3
20200328162513 62 164 1.0 11.0 0.00 0.00 0.00 41 1012.2
20200328162022 62 71 4.0 11.0 0.00 0.00 0.00 40 1012.2
20200328161519 63 59 4.0 9.0 0.00 0.00 0.00 40 1012.2
20200328161023 63 89 2.0 6.0 0.00 0.00 0.00 40 1012.1
20200328160520 63 315 4.0 8.0 0.00 0.00 0.00 40 1012.1
20200328160026 63 303 4.0 10.0 0.00 0.00 0.00 41 1012.2
20200328155523 63 87 5.0 10.0 0.00 0.00 0.00 41 1012.2
20200328155039 63 68 2.0 8.0 0.00 0.00 0.00 40 1012.2
20200328154525 64 141 4.0 11.0 0.00 0.00 0.00 41 1012.1
20200328154013 64 70 3.0 12.0 0.00 0.00 0.00 41 1012.1
20200328153529 63 121 1.0 12.0 0.00 0.00 0.00 41 1012.1
20200328153016 64 78 4.0 11.0 0.00 0.00 0.00 40 1012.2
20200328152533 65 58 3.0 11.0 0.00 0.00 0.00 41 1012.1
20200328152015 64 70 6.0 11.0 0.00 0.00 0.00 41 1012.0
20200328151528 65 59 1.0 8.0 0.00 0.00 0.00 41 1011.9
20200328151025 64 75 3.0 6.0 0.00 0.00 0.00 41 1011.9
20200328150532 63 209 3.0 14.0 0.00 0.00 0.00 42 1011.9
20200328150029 63 248 5.0 14.0 0.00 0.00 0.00 42 1012.0
20200328145517 64 248 3.0 13.0 0.00 0.00 0.00 44 1012.0
20200328145034 65 229 3.0 8.0 0.00 0.00 0.00 40 1012.1
20200328144522 65 115 3.0 6.0 0.00 0.00 0.00 44 1012.1
20200328144032 65 262 2.0 5.0 0.00 0.00 0.00 43 1012.1
20200328143540 65 59 2.0 5.0 0.00 0.00 0.00 42 1012.1
20200328143026 65 57 2.0 5.0 0.00 0.00 0.00 43 1012.1
20200328142513 65 145 1.0 5.0 0.00 0.00 0.00 43 1012.2
20200328142029 64 126 1.0 7.0 0.00 0.00 0.00 44 1012.2
20200328141517 65 60 4.0 7.0 0.00 0.00 0.00 43 1012.2
20200328141013 65 125 2.0 7.0 0.00 0.00 0.00 44 1012.1
20200328140520 64 130 1.0 7.0 0.00 0.00 0.00 44 1012.3
20200328140018 65 86 4.0 7.0 0.00 0.00 0.00 42 1012.1
20200328135534 65 134 1.0 4.0 0.00 0.00 0.00 46 1012.3
20200328135019 64 34 2.0 15.0 0.00 0.00 0.00 46 1012.3
20200328134535 64 134 7.0 15.0 0.00 0.00 0.00 45 1012.1
20200328134023 64 149 4.0 8.0 0.00 0.00 0.00 44 1012.1
20200328133539 64 252 5.0 12.0 0.00 0.00 0.00 42 1012.2
20200328133027 63 134 6.0 12.0 0.00 0.00 0.00 41 1012.4
20200328132515 63 70 3.0 6.0 0.00 0.00 0.00 46 1012.3
20200328132031 63 70 4.0 10.0 0.00 0.00 0.00 45 1012.3
20200328131527 63 60 3.0 10.0 0.00 0.00 0.00 44 1012.5
20200328131015 63 89 2.0 7.0 0.00 0.00 0.00 47 1012.5
20200328130533 62 109 2.0 7.0 0.00 0.00 0.00 47 1012.6
20200328130021 62 82 4.0 8.0 0.00 0.00 0.00 48 1012.6
20200328125537 62 73 3.0 8.0 0.00 0.00 0.00 48 1012.7
20200328125024 62 65 4.0 7.0 0.00 0.00 0.00 49 1012.7
20200328124537 62 72 4.0 7.0 0.00 0.00 0.00 47 1012.8
20200328124024 62 58 4.0 6.0 0.00 0.00 0.00 46 1012.8
20200328123540 62 154 3.0 6.0 0.00 0.00 0.00 49 1012.9
20200328123028 62 71 4.0 6.0 0.00 0.00 0.00 47 1012.9
20200328122524 61 76 2.0 8.0 0.00 0.00 0.00 48 1013.0
20200328122028 61 68 4.0 8.0 0.00 0.00 0.00 47 1013.0
20200328121525 61 75 2.0 6.0 0.00 0.00 0.00 48 1013.0
20200328121031 61 65 2.0 6.0 0.00 0.00 0.00 49 1013.1
20200328120527 61 73 3.0 6.0 0.00 0.00 0.00 48 1013.2
20200328120014 60 83 2.0 4.0 0.00 0.00 0.00 50 1013.2
20200328115532 60 67 2.0 6.0 0.00 0.00 0.00 47 1013.2
20200328115018 60 123 2.0 7.0 0.00 0.00 0.00 49 1013.3
20200328114515 59 293 2.0 3.0 0.00 0.00 0.00 50 1013.4
20200328114023 59 143 1.0 6.0 0.00 0.00 0.00 48 1013.5
20200328113521 59 76 2.0 6.0 0.00 0.00 0.00 49 1013.4
20200328113028 59 79 3.0 4.0 0.00 0.00 0.00 49 1013.5
20200328112524 58 114 1.0 4.0 0.00 0.00 0.00 53 1013.6
20200328112043 57 86 2.0 5.0 0.00 0.00 0.00 55 1013.6
20200328111526 57 63 1.0 5.0 0.00 0.00 0.00 55 1013.7
20200328111021 57 44 2.0 4.0 0.00 0.00 0.00 53 1013.7
20200328110527 56 155 2.0 4.0 0.00 0.00 0.00 55 1013.8
20200328110024 56 231 1.0 5.0 0.00 0.00 0.00 54 1013.8
20200328105531 56 58 2.0 5.0 0.00 0.00 0.00 55 1013.8
20200328105026 56 233 0.0 3.0 0.00 0.00 0.00 55 1013.8
20200328104514 56 144 1.0 6.0 0.00 0.00 0.00 57 1013.9
20200328104030 55 214 1.0 6.0 0.00 0.00 0.00 56 1013.9
20200328103518 55 137 1.0 2.0 0.00 0.00 0.00 57 1013.9
20200328103014 55 84 1.0 2.0 0.00 0.00 0.00 58 1014.0
20200328102522 55 155 1.0 3.0 0.00 0.00 0.00 58 1014.0
20200328102015 54 67 1.0 2.0 0.00 0.00 0.00 61 1014.0
20200328101517 53 221 1.0 3.0 0.00 0.00 0.00 59 1014.1
20200328101032 52 196 1.0 4.0 0.00 0.00 0.00 62 1014.1
20200328100518 52 63 2.0 3.0 0.00 0.00 0.00 62 1014.2
20200328100014 53 68 1.0 3.0 0.00 0.00 0.00 61 1014.4
20200328095530 52 100 0.0 3.0 0.00 0.00 0.00 65 1014.4
20200328095018 52 90 1.0 3.0 0.00 0.00 0.00 65 1014.4
20200328094533 51 96 1.0 3.0 0.00 0.00 0.00 64 1014.4
20200328094016 50 136 1.0 3.0 0.00 0.00 0.00 67 1014.5
20200328093532 50 229 0.0 1.0 0.00 0.00 0.00 66 1014.5
20200328093020 50 225 0.0 3.0 0.00 0.00 0.00 67 1014.5
20200328092535 50 217 1.0 3.0 0.00 0.00 0.00 64 1014.6
20200328092020 50 195 0.0 1.0 0.00 0.00 0.00 64 1014.4
20200328091517 49 202 0.0 2.0 0.00 0.00 0.00 65 1014.5
20200328091025 48 218 1.0 2.0 0.00 0.00 0.00 68 1014.6
20200328090522 48 68 1.0 2.0 0.00 0.00 0.00 67 1014.5
20200328090029 47 63 0.0 1.0 0.00 0.00 0.00 69 1014.5
20200328085526 47 30 0.0 1.0 0.00 0.00 0.00 68 1014.7
20200328085027 46 248 0.0 1.0 0.00 0.00 0.00 70 1014.7
20200328084524 45 248 0.0 1.0 0.00 0.00 0.00 75 1014.7
20200328084042 45 248 0.0 2.0 0.00 0.00 0.00 73 1014.8
20200328083530 44 227 1.0 2.0 0.00 0.00 0.00 73 1014.8
20200328083016 44 206 0.0 2.0 0.00 0.00 0.00 75 1014.8
20200328082531 44 244 0.0 1.0 0.00 0.00 0.00 76 1014.8
20200328082016 43 235 0.0 1.0 0.00 0.00 0.00 80 1014.8
20200328081513 42 236 1.0 1.0 0.00 0.00 0.00 78 1014.8
20200328081016 42 213 0.0 1.0 0.00 0.00 0.00 80 1014.8
20200328080513 42 103 0.0 1.0 0.00 0.00 0.00 81 1014.9
20200328080027 41 103 0.0 1.0 0.00 0.00 0.00 79 1014.9
20200328075019 40 103 0.0 1.0 0.00 0.00 0.00 81 1014.9
20200328074527 40 103 0.0 1.0 0.00 0.00 0.00 82 1014.8
20200328074020 39 98 0.0 1.0 0.00 0.00 0.00 83 1014.8
20200328073527 39 98 0.0 1.0 0.00 0.00 0.00 84 1014.7
20200328073024 39 98 0.0 1.0 0.00 0.00 0.00 84 1014.7
20200328072530 38 98 0.0 1.0 0.00 0.00 0.00 84 1014.7
20200328072027 38 128 0.0 1.0 0.00 0.00 0.00 85 1014.6
20200328071513 38 134 0.0 1.0 0.00 0.00 0.00 85 1014.6
20200328071028 37 150 0.0 1.0 0.00 0.00 0.00 86 1014.7
20200328070515 37 153 0.0 1.0 0.00 0.00 0.00 87 1014.7
20200328070032 37 153 0.0 1.0 0.00 0.00 0.00 87 1014.6
20200328065520 36 74 0.0 1.0 0.00 0.00 0.00 87 1014.7
20200328065014 36 74 0.0 1.0 0.00 0.00 0.00 87 1014.7
20200328064533 35 74 0.0 1.0 0.00 0.00 0.00 87 1014.6
20200328064015 35 74 0.0 1.0 0.00 0.00 0.00 87 1014.6
20200328063531 35 74 0.0 1.0 0.00 0.00 0.00 86 1014.6
20200328063018 35 75 0.0 2.0 0.00 0.00 0.00 86 1014.6
20200328062534 35 74 1.0 2.0 0.00 0.00 0.00 88 1014.6
20200328062021 34 203 0.0 0.0 0.00 0.00 0.00 88 1014.5
20200328061536 33 203 0.0 0.0 0.00 0.00 0.00 87 1014.5
20200328061023 33 203 0.0 1.0 0.00 0.00 0.00 86 1014.5
20200328060521 34 203 0.0 1.0 0.00 0.00 0.00 87 1014.5
20200328060025 33 215 0.0 1.0 0.00 0.00 0.00 89 1014.4
20200328055521 33 215 0.0 1.0 0.00 0.00 0.00 89 1014.3
20200328055029 32 214 0.0 0.0 0.00 0.00 0.00 89 1014.4
20200328054526 32 214 0.0 1.0 0.00 0.00 0.00 88 1014.3
20200328054027 33 215 0.0 1.0 0.00 0.00 0.00 87 1014.2
20200328053523 33 163 0.0 0.0 0.00 0.00 0.00 87 1014.2
20200328053026 33 163 0.0 0.0 0.00 0.00 0.00 87 1014.1
20200328052523 34 162 0.0 0.0 0.00 0.00 0.00 88 1014.1
20200328052041 34 162 0.0 0.0 0.00 0.00 0.00 88 1014.1
20200328051527 33 162 0.0 0.0 0.00 0.00 0.00 89 1014.0
20200328051013 33 162 0.0 0.0 0.00 0.00 0.00 88 1014.1
20200328050529 33 162 0.0 0.0 0.00 0.00 0.00 88 1014.0
20200328050015 33 162 0.0 0.0 0.00 0.00 0.00 87 1014.0
20200328045513 33 162 0.0 1.0 0.00 0.00 0.00 87 1014.0
20200328045014 33 162 0.0 1.0 0.00 0.00 0.00 86 1013.9
20200328044531 34 22 0.0 1.0 0.00 0.00 0.00 87 1014.0
20200328044027 34 22 0.0 1.0 0.00 0.00 0.00 87 1013.9
20200328043514 34 22 1.0 1.0 0.00 0.00 0.00 88 1013.9
20200328043031 34 280 0.0 1.0 0.00 0.00 0.00 89 1014.0
20200328042516 34 280 0.0 0.0 0.00 0.00 0.00 88 1013.9
20200328042033 34 280 0.0 1.0 0.00 0.00 0.00 88 1013.8
20200328041531 34 280 0.0 1.0 0.00 0.00 0.00 89 1013.9
20200328041026 33 280 0.0 1.0 0.00 0.00 0.00 89 1013.8
20200328040513 33 280 0.0 2.0 0.00 0.00 0.00 88 1013.9
20200328040029 33 280 1.0 2.0 0.00 0.00 0.00 88 1013.8
20200328035516 34 272 1.0 1.0 0.00 0.00 0.00 83 1013.8
20200328035032 35 263 0.0 1.0 0.00 0.00 0.00 87 1013.7
20200328034519 34 263 0.0 1.0 0.00 0.00 0.00 86 1013.7
20200328034031 34 263 0.0 1.0 0.00 0.00 0.00 87 1013.7
20200328033526 34 263 0.0 1.0 0.00 0.00 0.00 87 1013.7
20200328033027 34 263 0.0 0.0 0.00 0.00 0.00 86 1013.7
20200328032524 34 263 0.0 0.0 0.00 0.00 0.00 86 1013.7
20200328032028 35 263 0.0 1.0 0.00 0.00 0.00 85 1013.6
20200328031516 35 263 0.0 1.0 0.00 0.00 0.00 87 1013.7
20200328031020 35 263 0.0 1.0 0.00 0.00 0.00 87 1013.6
20200328030515 35 263 0.0 1.0 0.00 0.00 0.00 87 1013.6
20200328030024 34 263 0.0 0.0 0.00 0.00 0.00 88 1013.6
20200328025521 34 263 0.0 1.0 0.00 0.00 0.00 86 1013.5
20200328025038 34 263 0.0 1.0 0.00 0.00 0.00 86 1013.6
20200328024522 34 263 0.0 1.0 0.00 0.00 0.00 85 1013.7
20200328024039 35 263 0.0 1.0 0.00 0.00 0.00 86 1013.7
20200328023525 34 263 0.0 1.0 0.00 0.00 0.00 86 1013.5
20200328023036 35 263 0.0 0.0 0.00 0.00 0.00 84 1013.5
20200328022524 35 263 0.0 0.0 0.00 0.00 0.00 83 1013.7
20200328022021 36 263 0.0 0.0 0.00 0.00 0.00 83 1013.6
20200328021526 36 263 0.0 1.0 0.00 0.00 0.00 84 1013.6
20200328021022 36 263 0.0 1.0 0.00 0.00 0.00 84 1013.6
20200328020529 36 263 0.0 0.0 0.00 0.00 0.00 84 1013.4
20200328020025 36 263 0.0 0.0 0.00 0.00 0.00 83 1013.6
20200328015532 36 263 0.0 0.0 0.00 0.00 0.00 83 1013.5
20200328015028 36 263 0.0 1.0 0.00 0.00 0.00 84 1013.5
20200328014515 36 263 0.0 1.0 0.00 0.00 0.00 84 1013.7
20200328014031 36 263 0.0 0.0 0.00 0.00 0.00 83 1013.7
20200328013518 36 263 0.0 0.0 0.00 0.00 0.00 84 1013.7
20200328013015 36 263 0.0 0.0 0.00 0.00 0.00 84 1013.6
20200328012523 36 263 0.0 0.0 0.00 0.00 0.00 83 1013.6
20200328012020 36 263 0.0 0.0 0.00 0.00 0.00 83 1013.7
20200328011529 36 263 0.0 0.0 0.00 0.00 0.00 83 1013.5
20200328011014 36 263 0.0 0.0 0.00 0.00 0.00 83 1013.4
20200328010531 36 263 0.0 0.0 0.00 0.00 0.00 82 1013.4
20200328010017 37 263 0.0 0.0 0.00 0.00 0.00 81 1013.3
20200328005532 37 263 0.0 1.0 0.00 0.00 0.00 80 1013.3
20200328005032 38 263 0.0 1.0 0.00 0.00 0.00 79 1013.3
20200328004524 38 263 0.0 1.0 0.00 0.00 0.00 81 1013.4
20200328004032 38 263 0.0 0.0 0.00 0.00 0.00 81 1013.2
20200328003528 38 263 0.0 1.0 0.00 0.00 0.00 80 1013.2
20200328003016 38 263 0.0 1.0 0.00 0.00 0.00 79 1013.1
20200328002534 38 263 0.0 1.0 0.00 0.00 0.00 80 1013.1
20200328002021 38 263 0.0 1.0 0.00 0.00 0.00 80 1013.1
20200328001518 38 263 0.0 1.0 0.00 0.00 0.00 78 1013.1
20200328001023 39 263 0.0 1.0 0.00 0.00 0.00 78 1013.1
20200328000521 39 263 0.0 1.0 0.00 0.00 0.00 79 1013.0
20200328000028 39 263 0.0 1.0 0.00 0.00 0.00 78 1013.1
20200327235522 39 263 0.0 1.0 0.00 0.00 0.00 78 1013.1
20200327235030 39 263 0.0 1.0 0.00 0.00 0.00 78 1013.0
20200327234527 39 263 0.0 1.0 0.00 0.00 0.00 78 1013.0
20200327234042 39 263 0.0 1.0 0.00 0.00 0.00 78 1013.0
20200327233530 39 263 0.0 0.0 0.00 0.00 0.00 79 1012.9
20200327233018 39 263 0.0 1.0 0.00 0.00 0.00 78 1013.0
20200327232531 39 263 0.0 1.0 0.00 0.00 0.00 78 1012.9
20200327232019 39 263 0.0 1.0 0.00 0.00 0.00 78 1012.9
20200327231516 39 263 0.0 1.0 0.00 0.00 0.00 77 1013.0
20200327231022 39 263 0.0 1.0 0.00 0.00 0.00 78 1013.0
20200327230519 39 263 0.0 1.0 0.00 0.00 0.00 77 1013.0
20200327230038 40 263 0.0 1.0 0.00 0.00 0.00 75 1012.9
20200327225524 41 263 0.0 1.0 0.00 0.00 0.00 75 1013.0
20200327225041 41 263 0.0 1.0 0.00 0.00 0.00 75 1012.9
20200327224528 40 263 0.0 1.0 0.00 0.00 0.00 77 1013.0
20200327224015 40 263 0.0 1.0 0.00 0.00 0.00 76 1012.9
20200327223531 40 263 0.0 1.0 0.00 0.00 0.00 75 1012.9
20200327223028 41 263 0.0 1.0 0.00 0.00 0.00 75 1012.9
20200327222515 41 263 0.0 1.0 0.00 0.00 0.00 74 1012.9
20200327222031 41 263 0.0 1.0 0.00 0.00 0.00 75 1013.0
20200327221519 40 263 0.0 1.0 0.00 0.00 0.00 77 1013.0
20200327221015 40 263 0.0 0.0 0.00 0.00 0.00 76 1012.9
20200327220531 41 264 0.0 1.0 0.00 0.00 0.00 75 1012.8
20200327220029 41 263 0.0 1.0 0.00 0.00 0.00 76 1012.8
20200327215517 40 263 0.0 0.0 0.00 0.00 0.00 76 1012.9
20200327215032 40 263 0.0 0.0 0.00 0.00 0.00 76 1012.9
20200327214520 40 263 0.0 1.0 0.00 0.00 0.00 76 1012.9
20200327214035 40 263 0.0 1.0 0.00 0.00 0.00 76 1012.8
20200327213521 41 263 0.0 0.0 0.00 0.00 0.00 74 1012.9
20200327213034 42 263 0.0 1.0 0.00 0.00 0.00 73 1012.9
20200327212520 42 263 0.0 1.0 0.00 0.00 0.00 72 1012.8
20200327212015 43 263 0.0 1.0 0.00 0.00 0.00 72 1012.8
20200327211522 42 263 1.0 1.0 0.00 0.00 0.00 74 1012.8
20200327211017 41 255 0.0 1.0 0.00 0.00 0.00 74 1012.8
20200327210524 41 255 0.0 1.0 0.00 0.00 0.00 74 1012.8
20200327210021 42 255 0.0 1.0 0.00 0.00 0.00 72 1012.8
20200327205526 43 255 0.0 1.0 0.00 0.00 0.00 71 1012.8
20200327205023 42 255 0.0 1.0 0.00 0.00 0.00 73 1012.8
20200327204541 42 255 0.0 1.0 0.00 0.00 0.00 73 1012.8
20200327204022 42 255 0.0 1.0 0.00 0.00 0.00 72 1012.8
20200327203540 43 255 0.0 1.0 0.00 0.00 0.00 71 1012.7
20200327203026 43 255 0.0 1.0 0.00 0.00 0.00 70 1012.7
20200327202513 43 255 0.0 0.0 0.00 0.00 0.00 70 1012.7
20200327202027 43 255 0.0 0.0 0.00 0.00 0.00 69 1012.7
20200327201523 44 255 0.0 1.0 0.00 0.00 0.00 68 1012.6
20200327201030 44 255 0.0 1.0 0.00 0.00 0.00 68 1012.6
20200327200528 44 255 0.0 1.0 0.00 0.00 0.00 67 1012.6
20200327200016 44 255 1.0 1.0 0.00 0.00 0.00 69 1012.7
20200327195529 44 252 0.0 1.0 0.00 0.00 0.00 68 1012.6
20200327195017 45 261 0.0 1.0 0.00 0.00 0.00 67 1012.6
20200327194533 45 261 0.0 1.0 0.00 0.00 0.00 66 1012.6
20200327194021 45 261 0.0 1.0 0.00 0.00 0.00 66 1012.6
20200327193539 45 260 0.0 1.0 0.00 0.00 0.00 67 1012.7
20200327193026 45 260 0.0 1.0 0.00 0.00 0.00 67 1012.6
20200327192532 46 261 0.0 1.0 0.00 0.00 0.00 66 1012.6
20200327192020 46 260 0.0 1.0 0.00 0.00 0.00 65 1012.6
20200327191517 46 260 0.0 1.0 0.00 0.00 0.00 65 1012.6
20200327191021 46 261 0.0 1.0 0.00 0.00 0.00 64 1012.6
20200327190518 46 261 1.0 1.0 0.00 0.00 0.00 64 1012.6
20200327190026 47 319 0.0 1.0 0.00 0.00 0.00 63 1012.5
20200327185523 47 319 0.0 1.0 0.00 0.00 0.00 61 1012.4
20200327185036 47 73 0.0 1.0 0.00 0.00 0.00 64 1012.4